Time,TemperatureF,DewpointF,PressureIn,WindDirection,WindDirectionDegrees,WindSpeedMPH,WindSpeedGustMPH,Humidity,HourlyPrecipIn,Conditions,Clouds,dailyrainin,SolarRadiationWatts/m^2,SoftwareType,DateUTC
2013-02-05 00:02:00,58.6,26.4,-100.00,South,188,0.0,0.0,29,0.00,,,0.00,0.0,meteohub,2013-02-05 05:02:00,
2013-02-05 00:07:00,58.8,25.7,-100.00,South,188,0.0,0.0,28,0.00,,,0.00,0.0,meteohub,2013-02-05 05:07:00,
2013-02-05 00:12:00,58.6,24.8,-100.00,South,188,0.0,0.0,27,0.00,,,0.00,0.0,meteohub,2013-02-05 05:12:00,
2013-02-05 00:17:00,58.3,24.4,-100.00,South,188,0.0,0.0,27,0.00,,,0.00,0.0,meteohub,2013-02-05 05:17:00,
2013-02-05 00:22:00,58.5,23.7,-100.00,South,187,0.0,0.0,26,0.00,,,0.00,0.0,meteohub,2013-02-05 05:22:00,
2013-02-05 00:27:00,58.5,23.7,-100.00,South,188,0.0,0.0,26,0.00,,,0.00,0.0,meteohub,2013-02-05 05:27:00,
2013-02-05 00:32:00,58.5,22.8,-100.00,South,187,0.0,0.0,25,0.00,,,0.00,0.0,meteohub,2013-02-05 05:32:00,
2013-02-05 00:37:00,58.5,22.8,-100.00,South,187,0.0,0.0,25,0.00,,,0.00,0.0,meteohub,2013-02-05 05:37:00,
2013-02-05 00:42:00,58.6,22.8,-100.00,South,188,0.0,1.0,25,0.00,,,0.00,0.0,meteohub,2013-02-05 05:42:00,
2013-02-05 00:47:00,58.6,22.8,-100.00,South,188,0.0,1.0,25,0.00,,,0.00,0.0,meteohub,2013-02-05 05:47:00,
2013-02-05 00:52:00,58.6,22.8,-100.00,South,188,0.0,0.0,25,0.00,,,0.00,0.0,meteohub,2013-02-05 05:52:00,
2013-02-05 00:57:00,58.5,22.8,-100.00,South,187,0.0,0.0,25,0.00,,,0.00,0.0,meteohub,2013-02-05 05:57:00,
2013-02-05 01:02:00,58.5,22.8,-100.00,South,188,0.0,0.0,25,0.00,,,0.00,0.0,meteohub,2013-02-05 06:02:00,
2013-02-05 01:07:00,58.5,22.8,-100.00,South,188,0.0,0.0,25,0.00,,,0.00,0.0,meteohub,2013-02-05 06:07:00,
2013-02-05 01:12:00,58.3,22.6,-100.00,South,188,0.0,0.0,25,0.00,,,0.00,0.0,meteohub,2013-02-05 06:12:00,
2013-02-05 01:17:00,58.1,23.4,-100.00,South,188,0.0,0.0,26,0.00,,,0.00,0.0,meteohub,2013-02-05 06:17:00,
2013-02-05 01:22:00,57.9,23.2,-100.00,South,188,0.0,0.0,26,0.00,,,0.00,0.0,meteohub,2013-02-05 06:22:00,
2013-02-05 01:27:00,57.6,23.0,-100.00,South,188,0.0,0.0,26,0.00,,,0.00,0.0,meteohub,2013-02-05 06:27:00,
2013-02-05 01:32:00,57.4,23.7,-100.00,South,187,0.0,0.0,27,0.00,,,0.00,0.0,meteohub,2013-02-05 06:32:00,
2013-02-05 01:37:00,57.0,23.4,-100.00,South,188,0.0,0.0,27,0.00,,,0.00,0.0,meteohub,2013-02-05 06:37:00,
2013-02-05 01:42:00,56.8,24.1,-100.00,South,188,0.0,0.0,28,0.00,,,0.00,0.0,meteohub,2013-02-05 06:42:00,
2013-02-05 01:47:00,56.7,23.9,-100.00,South,187,0.0,0.0,28,0.00,,,0.00,0.0,meteohub,2013-02-05 06:47:00,
2013-02-05 01:52:00,56.7,23.9,-100.00,South,187,0.0,0.0,28,0.00,,,0.00,0.0,meteohub,2013-02-05 06:52:00,
2013-02-05 01:57:00,56.7,23.9,-100.00,South,187,0.0,0.0,28,0.00,,,0.00,0.0,meteohub,2013-02-05 06:57:00,
2013-02-05 02:02:00,56.7,23.9,-100.00,South,188,0.0,0.0,28,0.00,,,0.00,0.0,meteohub,2013-02-05 07:02:00,
2013-02-05 02:07:00,56.3,24.4,-100.00,South,187,0.0,0.0,29,0.00,,,0.00,0.0,meteohub,2013-02-05 07:07:00,
2013-02-05 02:12:00,55.9,25.0,-100.00,South,187,0.0,0.0,30,0.00,,,0.00,0.0,meteohub,2013-02-05 07:12:00,
2013-02-05 02:22:00,55.0,25.0,-100.00,South,188,0.0,0.0,31,0.00,,,0.00,0.0,meteohub,2013-02-05 07:22:00,
2013-02-05 02:27:00,54.7,24.6,-100.00,South,188,0.0,0.0,31,0.00,,,0.00,0.0,meteohub,2013-02-05 07:27:00,
2013-02-05 02:32:00,54.5,23.7,-100.00,South,187,0.0,0.0,30,0.00,,,0.00,0.0,meteohub,2013-02-05 07:32:00,
2013-02-05 02:37:00,54.1,23.4,-100.00,South,188,0.0,0.0,30,0.00,,,0.00,0.0,meteohub,2013-02-05 07:37:00,
2013-02-05 02:42:00,53.8,23.9,-100.00,South,187,0.0,0.0,31,0.00,,,0.00,0.0,meteohub,2013-02-05 07:42:00,
2013-02-05 02:47:00,53.4,23.5,-100.00,South,187,0.0,0.0,31,0.00,,,0.00,0.0,meteohub,2013-02-05 07:47:00,
2013-02-05 02:52:00,53.1,22.5,-100.00,South,188,0.0,0.0,30,0.00,,,0.00,0.0,meteohub,2013-02-05 07:52:00,
2013-02-05 02:57:00,53.1,22.5,-100.00,South,188,0.0,0.0,30,0.00,,,0.00,0.0,meteohub,2013-02-05 07:57:00,
2013-02-05 03:02:00,52.7,22.1,-100.00,South,188,0.0,0.0,30,0.00,,,0.00,0.0,meteohub,2013-02-05 08:02:00,
2013-02-05 03:07:00,53.2,21.0,-100.00,South,187,0.0,0.0,28,0.00,,,0.00,0.0,meteohub,2013-02-05 08:07:00,
2013-02-05 03:12:00,53.6,20.5,-100.00,South,188,0.0,0.0,27,0.00,,,0.00,0.0,meteohub,2013-02-05 08:12:00,
2013-02-05 03:17:00,53.4,20.3,-100.00,South,188,0.0,0.0,27,0.00,,,0.00,0.0,meteohub,2013-02-05 08:17:00,
2013-02-05 03:22:00,53.2,20.1,-100.00,South,187,0.0,0.0,27,0.00,,,0.00,0.0,meteohub,2013-02-05 08:22:00,
2013-02-05 03:27:00,53.1,19.9,-100.00,South,187,0.0,0.0,27,0.00,,,0.00,0.0,meteohub,2013-02-05 08:27:00,
2013-02-05 03:32:00,53.1,19.9,-100.00,South,188,0.0,0.0,27,0.00,,,0.00,0.0,meteohub,2013-02-05 08:32:00,
2013-02-05 03:37:00,53.1,19.9,-100.00,South,188,0.0,0.0,27,0.00,,,0.00,0.0,meteohub,2013-02-05 08:37:00,
2013-02-05 03:42:00,53.1,19.0,-100.00,South,187,0.0,0.0,26,0.00,,,0.00,0.0,meteohub,2013-02-05 08:42:00,
2013-02-05 03:47:00,52.9,18.9,-100.00,South,187,0.0,0.0,26,0.00,,,0.00,0.0,meteohub,2013-02-05 08:47:00,
2013-02-05 03:52:00,52.7,18.7,-100.00,South,188,0.0,0.0,26,0.00,,,0.00,0.0,meteohub,2013-02-05 08:52:00,
2013-02-05 03:57:00,52.7,18.7,-100.00,South,187,0.0,0.0,26,0.00,,,0.00,0.0,meteohub,2013-02-05 08:57:00,
2013-02-05 04:02:00,53.2,19.2,-100.00,South,187,0.0,0.0,26,0.00,,,0.00,0.0,meteohub,2013-02-05 09:02:00,
2013-02-05 04:07:00,53.2,18.3,-100.00,South,188,0.0,0.0,25,0.00,,,0.00,0.0,meteohub,2013-02-05 09:07:00,
2013-02-05 04:12:00,53.1,19.0,-100.00,South,188,0.0,0.0,26,0.00,,,0.00,0.0,meteohub,2013-02-05 09:12:00,
2013-02-05 04:17:00,53.2,18.3,-100.00,South,188,0.0,0.0,25,0.00,,,0.00,0.0,meteohub,2013-02-05 09:17:00,
2013-02-05 04:22:00,53.4,18.5,-100.00,South,187,0.0,0.0,25,0.00,,,0.00,0.0,meteohub,2013-02-05 09:22:00,
2013-02-05 04:27:00,53.4,18.5,-100.00,South,188,0.0,0.0,25,0.00,,,0.00,0.0,meteohub,2013-02-05 09:27:00,
2013-02-05 04:32:00,53.2,18.3,-100.00,South,188,0.0,0.0,25,0.00,,,0.00,0.0,meteohub,2013-02-05 09:32:00,
2013-02-05 04:37:00,53.1,19.0,-100.00,South,188,0.0,0.0,26,0.00,,,0.00,0.0,meteohub,2013-02-05 09:37:00,
2013-02-05 04:42:00,52.9,18.9,-100.00,South,187,0.0,0.0,26,0.00,,,0.00,0.0,meteohub,2013-02-05 09:42:00,
2013-02-05 04:47:00,52.9,18.9,-100.00,South,188,0.0,0.0,26,0.00,,,0.00,0.0,meteohub,2013-02-05 09:47:00,
2013-02-05 04:52:00,52.9,18.9,-100.00,South,188,0.0,0.0,26,0.00,,,0.00,0.0,meteohub,2013-02-05 09:52:00,
2013-02-05 04:57:00,53.2,18.3,-100.00,South,187,0.0,0.0,25,0.00,,,0.00,0.0,meteohub,2013-02-05 09:57:00,
2013-02-05 05:02:00,53.2,18.3,-100.00,South,188,0.0,0.0,25,0.00,,,0.00,0.0,meteohub,2013-02-05 10:02:00,
2013-02-05 05:07:00,53.4,18.5,-100.00,South,188,0.0,0.0,25,0.00,,,0.00,0.0,meteohub,2013-02-05 10:07:00,
2013-02-05 05:12:00,53.4,18.5,-100.00,South,188,0.0,0.0,25,0.00,,,0.00,0.0,meteohub,2013-02-05 10:12:00,
2013-02-05 05:17:00,53.2,18.3,-100.00,South,187,0.0,0.0,25,0.00,,,0.00,0.0,meteohub,2013-02-05 10:17:00,
2013-02-05 05:22:00,53.2,18.3,-100.00,South,188,0.0,0.0,25,0.00,,,0.00,0.0,meteohub,2013-02-05 10:22:00,
2013-02-05 05:27:00,53.1,18.1,-100.00,South,188,0.0,0.0,25,0.00,,,0.00,0.0,meteohub,2013-02-05 10:27:00,
2013-02-05 05:32:00,53.1,18.1,-100.00,South,187,0.0,0.0,25,0.00,,,0.00,0.0,meteohub,2013-02-05 10:32:00,
2013-02-05 05:37:00,53.2,18.3,-100.00,South,187,0.0,0.0,25,0.00,,,0.00,0.0,meteohub,2013-02-05 10:37:00,
2013-02-05 05:42:00,53.4,18.5,-100.00,South,188,0.0,0.0,25,0.00,,,0.00,0.0,meteohub,2013-02-05 10:42:00,
2013-02-05 05:47:00,53.4,18.5,-100.00,South,188,0.0,0.0,25,0.00,,,0.00,0.0,meteohub,2013-02-05 10:47:00,
2013-02-05 05:52:00,53.4,18.5,-100.00,South,188,0.0,0.0,25,0.00,,,0.00,0.0,meteohub,2013-02-05 10:52:00,
2013-02-05 05:57:00,53.2,18.3,-100.00,South,187,0.0,0.0,25,0.00,,,0.00,0.0,meteohub,2013-02-05 10:57:00,
2013-02-05 06:02:00,53.1,18.1,-100.00,South,188,0.0,0.0,25,0.00,,,0.00,0.0,meteohub,2013-02-05 11:02:00,
2013-02-05 06:07:00,52.9,18.9,-100.00,South,187,0.0,0.0,26,0.00,,,0.00,0.0,meteohub,2013-02-05 11:07:00,
2013-02-05 06:12:00,52.7,18.7,-100.00,South,187,0.0,0.0,26,0.00,,,0.00,0.0,meteohub,2013-02-05 11:12:00,
2013-02-05 06:17:00,53.1,18.1,-100.00,South,188,0.0,0.0,25,0.00,,,0.00,0.0,meteohub,2013-02-05 11:17:00,
2013-02-05 06:22:00,53.4,18.5,-100.00,South,188,0.0,0.0,25,0.00,,,0.00,0.0,meteohub,2013-02-05 11:22:00,
2013-02-05 06:27:00,53.8,18.9,-100.00,South,188,0.0,1.0,25,0.00,,,0.00,0.0,meteohub,2013-02-05 11:27:00,
2013-02-05 06:32:00,53.8,18.9,-100.00,South,187,0.0,1.0,25,0.00,,,0.00,0.0,meteohub,2013-02-05 11:32:00,
2013-02-05 06:37:00,53.8,18.9,-100.00,South,188,0.0,0.0,25,0.00,,,0.00,0.0,meteohub,2013-02-05 11:37:00,
2013-02-05 06:42:00,54.0,18.9,-100.00,South,188,0.0,0.0,25,0.00,,,0.00,0.0,meteohub,2013-02-05 11:42:00,
2013-02-05 06:47:00,53.8,19.8,-100.00,South,187,0.0,0.0,26,0.00,,,0.00,0.0,meteohub,2013-02-05 11:47:00,
2013-02-05 06:52:00,54.1,19.0,-100.00,South,187,0.0,0.0,25,0.00,,,0.00,0.0,meteohub,2013-02-05 11:52:00,
2013-02-05 07:02:00,55.2,19.9,-100.00,South,188,0.0,0.0,25,0.00,,,0.00,0.0,meteohub,2013-02-05 12:02:00,
2013-02-05 07:07:00,55.2,20.8,-100.00,South,188,0.0,0.0,26,0.00,,,0.00,7.0,meteohub,2013-02-05 12:07:00,
2013-02-05 07:12:00,55.2,20.8,-100.00,South,188,0.0,0.0,26,0.00,,,0.00,9.0,meteohub,2013-02-05 12:12:00,
2013-02-05 07:17:00,55.0,20.8,-100.00,South,188,0.0,0.0,26,0.00,,,0.00,14.0,meteohub,2013-02-05 12:17:00,
2013-02-05 07:22:00,54.9,21.6,-100.00,South,188,0.0,0.0,27,0.00,,,0.00,25.0,meteohub,2013-02-05 12:22:00,
2013-02-05 07:27:00,54.3,21.0,-100.00,South,188,0.0,0.0,27,0.00,,,0.00,39.0,meteohub,2013-02-05 12:27:00,
2013-02-05 07:32:00,54.7,21.4,-100.00,South,188,0.0,0.0,27,0.00,,,0.00,53.0,meteohub,2013-02-05 12:32:00,
2013-02-05 07:37:00,55.0,20.8,-100.00,South,188,0.0,0.0,26,0.00,,,0.00,67.0,meteohub,2013-02-05 12:37:00,
2013-02-05 07:42:00,55.4,21.0,-100.00,South,188,0.0,0.0,26,0.00,,,0.00,86.0,meteohub,2013-02-05 12:42:00,
2013-02-05 07:47:00,55.9,20.7,-100.00,South,187,0.0,0.0,25,0.00,,,0.00,104.0,meteohub,2013-02-05 12:47:00,
2013-02-05 07:52:00,56.7,21.2,-100.00,South,188,0.0,0.0,25,0.00,,,0.00,123.0,meteohub,2013-02-05 12:52:00,
2013-02-05 07:57:00,57.2,21.7,-100.00,South,188,0.0,0.0,25,0.00,,,0.00,142.0,meteohub,2013-02-05 12:57:00,
2013-02-05 08:02:00,57.9,22.3,-100.00,South,188,0.0,0.0,25,0.00,,,0.00,163.0,meteohub,2013-02-05 13:02:00,
2013-02-05 08:07:00,59.0,23.2,-100.00,South,188,0.0,0.0,25,0.00,,,0.00,183.0,meteohub,2013-02-05 13:07:00,
2013-02-05 08:12:00,59.9,25.0,-100.00,South,188,0.0,0.0,26,0.00,,,0.00,204.0,meteohub,2013-02-05 13:12:00,
2013-02-05 08:17:00,60.6,26.4,-100.00,South,188,0.0,0.0,27,0.00,,,0.00,223.0,meteohub,2013-02-05 13:17:00,
2013-02-05 08:22:00,61.0,28.6,-100.00,South,187,0.0,0.0,29,0.00,,,0.00,246.0,meteohub,2013-02-05 13:22:00,
2013-02-05 08:27:00,61.3,31.3,-100.00,South,188,0.0,0.0,32,0.00,,,0.00,265.0,meteohub,2013-02-05 13:27:00,
2013-02-05 08:32:00,62.2,32.0,-100.00,South,188,0.0,0.0,32,0.00,,,0.00,285.0,meteohub,2013-02-05 13:32:00,
2013-02-05 08:37:00,63.3,33.8,-100.00,South,188,0.0,0.0,33,0.00,,,0.00,302.0,meteohub,2013-02-05 13:37:00,
2013-02-05 08:42:00,64.2,36.7,-100.00,South,187,0.0,0.0,36,0.00,,,0.00,322.0,meteohub,2013-02-05 13:42:00,
2013-02-05 08:47:00,64.9,39.4,-100.00,South,188,0.0,0.0,39,0.00,,,0.00,339.0,meteohub,2013-02-05 13:47:00,
2013-02-05 08:52:00,65.8,42.1,-100.00,South,188,0.0,0.0,42,0.00,,,0.00,352.0,meteohub,2013-02-05 13:52:00,
2013-02-05 08:57:00,66.7,45.3,-100.00,South,187,0.0,0.0,46,0.00,,,0.00,373.0,meteohub,2013-02-05 13:57:00,
2013-02-05 09:02:00,67.5,46.6,-100.00,South,187,0.0,1.0,47,0.00,,,0.00,392.0,meteohub,2013-02-05 14:02:00,
2013-02-05 09:07:00,68.2,48.4,-100.00,South,188,0.0,1.0,49,0.00,,,0.00,410.0,meteohub,2013-02-05 14:07:00,
2013-02-05 09:17:00,69.3,50.9,-100.00,South,191,3.0,3.0,52,0.00,,,0.00,445.0,meteohub,2013-02-05 14:17:00,
2013-02-05 09:22:00,69.6,51.8,-100.00,South,191,0.0,5.0,53,0.00,,,0.00,462.0,meteohub,2013-02-05 14:22:00,
2013-02-05 09:27:00,70.2,52.2,-100.00,South,191,0.0,5.0,53,0.00,,,0.00,476.0,meteohub,2013-02-05 14:27:00,
2013-02-05 09:32:00,70.9,53.4,-100.00,South,191,0.0,5.0,54,0.00,,,0.00,492.0,meteohub,2013-02-05 14:32:00,
2013-02-05 09:37:00,71.2,53.8,-100.00,South,173,0.0,3.0,54,0.00,,,0.00,508.0,meteohub,2013-02-05 14:37:00,
2013-02-05 09:42:00,71.4,54.0,-100.00,South,169,0.0,5.0,54,0.00,,,0.00,522.0,meteohub,2013-02-05 14:42:00,
2013-02-05 09:47:00,71.8,54.7,-100.00,SSW,201,2.0,6.0,55,0.00,,,0.00,538.0,meteohub,2013-02-05 14:47:00,
2013-02-05 09:52:00,71.8,54.7,-100.00,SSW,196,0.0,6.0,55,0.00,,,0.00,550.0,meteohub,2013-02-05 14:52:00,
2013-02-05 09:57:00,72.0,54.9,-100.00,South,176,2.0,6.0,55,0.00,,,0.00,564.0,meteohub,2013-02-05 14:57:00,
2013-02-05 10:02:00,72.0,54.9,-100.00,SSE,161,0.0,6.0,55,0.00,,,0.00,577.0,meteohub,2013-02-05 15:02:00,
2013-02-05 10:07:00,72.1,55.6,-100.00,SSW,194,7.0,9.0,56,0.00,,,0.00,589.0,meteohub,2013-02-05 15:07:00,
2013-02-05 10:12:00,72.9,56.3,-100.00,South,171,0.0,9.0,56,0.00,,,0.00,605.0,meteohub,2013-02-05 15:12:00,
2013-02-05 10:17:00,72.9,56.3,-100.00,South,183,3.0,9.0,56,0.00,,,0.00,621.0,meteohub,2013-02-05 15:17:00,
2013-02-05 10:22:00,73.0,55.9,-100.00,SSW,194,5.0,10.0,55,0.00,,,0.00,631.0,meteohub,2013-02-05 15:22:00,
2013-02-05 10:27:00,73.0,55.9,-100.00,SSW,197,5.0,10.0,55,0.00,,,0.00,643.0,meteohub,2013-02-05 15:27:00,
2013-02-05 10:32:00,73.2,56.1,-100.00,SSE,163,0.0,10.0,55,0.00,,,0.00,656.0,meteohub,2013-02-05 15:32:00,
2013-02-05 10:37:00,73.8,56.7,-100.00,South,176,3.0,9.0,55,0.00,,,0.00,666.0,meteohub,2013-02-05 15:37:00,
2013-02-05 10:42:00,73.8,55.6,-100.00,SSW,205,4.0,12.0,53,0.00,,,0.00,680.0,meteohub,2013-02-05 15:42:00,
2013-02-05 10:47:00,74.1,55.9,-100.00,South,188,0.0,13.0,53,0.00,,,0.00,686.0,meteohub,2013-02-05 15:47:00,
2013-02-05 10:52:00,74.8,56.1,-100.00,SSE,155,4.0,13.0,52,0.00,,,0.00,700.0,meteohub,2013-02-05 15:52:00,
2013-02-05 10:57:00,74.8,55.6,-100.00,SW,214,5.0,7.0,51,0.00,,,0.00,708.0,meteohub,2013-02-05 15:57:00,
2013-02-05 11:02:00,74.7,55.4,-100.00,South,176,0.0,10.0,51,0.00,,,0.00,719.0,meteohub,2013-02-05 16:02:00,
2013-02-05 11:07:00,74.7,55.4,-100.00,South,181,5.0,10.0,51,0.00,,,0.00,728.0,meteohub,2013-02-05 16:07:00,
2013-02-05 11:12:00,74.7,55.4,-100.00,SSW,195,5.0,12.0,51,0.00,,,0.00,735.0,meteohub,2013-02-05 16:12:00,
2013-02-05 11:17:00,74.8,55.0,-100.00,South,191,5.0,14.0,50,0.00,,,0.00,742.0,meteohub,2013-02-05 16:17:00,
2013-02-05 11:27:00,75.2,55.8,-100.00,SSW,200,1.0,13.0,51,0.00,,,0.00,756.0,meteohub,2013-02-05 16:27:00,
2013-02-05 11:32:00,75.6,56.1,-100.00,SSE,149,2.0,13.0,51,0.00,,,0.00,759.0,meteohub,2013-02-05 16:32:00,
2013-02-05 11:37:00,75.2,55.8,-100.00,South,174,4.0,13.0,51,0.00,,,0.00,766.0,meteohub,2013-02-05 16:37:00,
2013-02-05 11:42:00,75.6,56.7,-100.00,SSW,194,3.0,13.0,52,0.00,,,0.00,773.0,meteohub,2013-02-05 16:42:00,
2013-02-05 11:47:00,75.9,56.5,-100.00,SSE,163,0.0,11.0,51,0.00,,,0.00,784.0,meteohub,2013-02-05 16:47:00,
2013-02-05 11:52:00,75.9,56.5,-100.00,SSE,167,3.0,9.0,51,0.00,,,0.00,796.0,meteohub,2013-02-05 16:52:00,
2013-02-05 11:57:00,75.9,57.0,-100.00,SSE,157,12.0,12.0,52,0.00,,,0.00,800.0,meteohub,2013-02-05 16:57:00,
2013-02-05 12:02:00,75.9,56.5,-100.00,South,188,1.0,12.0,51,0.00,,,0.00,803.0,meteohub,2013-02-05 17:02:00,
2013-02-05 12:07:00,76.6,57.2,-100.00,South,179,8.0,12.0,51,0.00,,,0.00,805.0,meteohub,2013-02-05 17:07:00,
2013-02-05 12:12:00,76.1,57.2,-100.00,South,190,4.0,12.0,52,0.00,,,0.00,809.0,meteohub,2013-02-05 17:12:00,
2013-02-05 12:17:00,76.1,57.2,-100.00,South,173,4.0,12.0,52,0.00,,,0.00,812.0,meteohub,2013-02-05 17:17:00,
2013-02-05 12:22:00,76.1,57.2,-100.00,South,178,3.0,12.0,52,0.00,,,0.00,816.0,meteohub,2013-02-05 17:22:00,
2013-02-05 12:27:00,76.1,57.2,-100.00,SSW,213,11.0,12.0,52,0.00,,,0.00,816.0,meteohub,2013-02-05 17:27:00,
2013-02-05 12:37:00,76.3,57.9,-100.00,South,191,9.0,12.0,53,0.00,,,0.00,840.0,meteohub,2013-02-05 17:37:00,
2013-02-05 12:42:00,76.1,57.7,-100.00,South,174,7.0,13.0,53,0.00,,,0.00,898.0,meteohub,2013-02-05 17:42:00,
2013-02-05 12:47:00,76.5,58.1,-100.00,SSE,159,4.0,13.0,53,0.00,,,0.00,928.0,meteohub,2013-02-05 17:47:00,
2013-02-05 12:52:00,76.6,58.3,-100.00,SSE,165,12.0,13.0,53,0.00,,,0.00,916.0,meteohub,2013-02-05 17:52:00,
2013-02-05 12:57:00,76.6,58.3,-100.00,South,183,6.0,12.0,53,0.00,,,0.00,946.0,meteohub,2013-02-05 17:57:00,
2013-02-05 13:02:00,76.6,58.8,-100.00,South,178,4.0,12.0,54,0.00,,,0.00,972.0,meteohub,2013-02-05 18:02:00,
2013-02-05 13:07:00,77.2,58.6,-100.00,South,186,1.0,12.0,53,0.00,,,0.00,960.0,meteohub,2013-02-05 18:07:00,
2013-02-05 13:12:00,76.8,58.5,-100.00,South,183,7.0,12.0,53,0.00,,,0.00,900.0,meteohub,2013-02-05 18:12:00,
2013-02-05 13:17:00,77.4,59.4,-100.00,SSE,163,4.0,12.0,54,0.00,,,0.00,872.0,meteohub,2013-02-05 18:17:00,
2013-02-05 13:22:00,77.0,59.0,-100.00,SE,144,9.0,12.0,54,0.00,,,0.00,886.0,meteohub,2013-02-05 18:22:00,
2013-02-05 13:27:00,76.3,59.0,-100.00,South,190,4.0,12.0,55,0.00,,,0.00,262.0,meteohub,2013-02-05 18:27:00,
2013-02-05 13:32:00,75.7,58.5,-100.00,South,186,6.0,12.0,55,0.00,,,0.00,220.0,meteohub,2013-02-05 18:32:00,
2013-02-05 13:37:00,75.6,58.8,-100.00,SSE,160,3.0,12.0,56,0.00,,,0.00,265.0,meteohub,2013-02-05 18:37:00,
2013-02-05 13:42:00,75.0,58.3,-100.00,SSE,165,5.0,12.0,56,0.00,,,0.00,239.0,meteohub,2013-02-05 18:42:00,
2013-02-05 13:47:00,75.0,58.3,-100.00,South,189,5.0,12.0,56,0.00,,,0.00,225.0,meteohub,2013-02-05 18:47:00,
2013-02-05 13:52:00,74.8,58.1,-100.00,SE,134,3.0,12.0,56,0.00,,,0.00,784.0,meteohub,2013-02-05 18:52:00,
2013-02-05 13:57:00,75.7,59.0,-100.00,SSW,205,2.0,12.0,56,0.00,,,0.00,803.0,meteohub,2013-02-05 18:57:00,
2013-02-05 14:02:00,76.3,59.0,-100.00,South,172,8.0,12.0,55,0.00,,,0.00,817.0,meteohub,2013-02-05 19:02:00,
2013-02-05 14:07:00,75.6,58.8,-100.00,SSE,159,3.0,12.0,56,0.00,,,0.00,186.0,meteohub,2013-02-05 19:07:00,
2013-02-05 14:12:00,75.6,58.8,-100.00,South,191,3.0,12.0,56,0.00,,,0.00,773.0,meteohub,2013-02-05 19:12:00,
2013-02-05 14:22:00,76.3,59.4,-100.00,SSW,192,9.0,12.0,56,0.00,,,0.00,707.0,meteohub,2013-02-05 19:22:00,
2013-02-05 14:27:00,76.5,59.2,-100.00,SSE,148,3.0,13.0,55,0.00,,,0.00,707.0,meteohub,2013-02-05 19:27:00,
2013-02-05 14:32:00,75.9,59.2,-100.00,SE,145,6.0,13.0,56,0.00,,,0.00,264.0,meteohub,2013-02-05 19:32:00,
2013-02-05 14:37:00,75.6,58.8,-100.00,SSW,198,5.0,13.0,56,0.00,,,0.00,163.0,meteohub,2013-02-05 19:37:00,
2013-02-05 14:42:00,75.7,59.0,-100.00,SSW,196,2.0,11.0,56,0.00,,,0.00,657.0,meteohub,2013-02-05 19:42:00,
2013-02-05 14:52:00,75.9,59.2,-100.00,SSW,209,6.0,11.0,56,0.00,,,0.00,598.0,meteohub,2013-02-05 19:52:00,
2013-02-05 14:57:00,76.1,59.2,-100.00,South,176,6.0,11.0,56,0.00,,,0.00,596.0,meteohub,2013-02-05 19:57:00,
2013-02-05 15:02:00,76.3,59.4,-100.00,SSE,160,1.0,11.0,56,0.00,,,0.00,573.0,meteohub,2013-02-05 20:02:00,
2013-02-05 15:07:00,76.5,59.5,-100.00,SSE,159,5.0,11.0,56,0.00,,,0.00,571.0,meteohub,2013-02-05 20:07:00,
2013-02-05 15:12:00,76.1,59.2,-100.00,South,190,4.0,10.0,56,0.00,,,0.00,564.0,meteohub,2013-02-05 20:12:00,
2013-02-05 15:17:00,75.6,58.8,-100.00,South,172,4.0,10.0,56,0.00,,,0.00,216.0,meteohub,2013-02-05 20:17:00,
2013-02-05 15:22:00,75.6,58.8,-100.00,South,175,2.0,10.0,56,0.00,,,0.00,520.0,meteohub,2013-02-05 20:22:00,
2013-02-05 15:27:00,76.3,59.4,-100.00,SE,142,4.0,9.0,56,0.00,,,0.00,513.0,meteohub,2013-02-05 20:27:00,
2013-02-05 15:32:00,76.5,59.5,-100.00,SSW,198,6.0,10.0,56,0.00,,,0.00,503.0,meteohub,2013-02-05 20:32:00,
2013-02-05 15:37:00,76.3,59.4,-100.00,SSW,207,0.0,10.0,56,0.00,,,0.00,192.0,meteohub,2013-02-05 20:37:00,
2013-02-05 15:42:00,75.9,59.2,-100.00,South,171,0.0,11.0,56,0.00,,,0.00,197.0,meteohub,2013-02-05 20:42:00,
2013-02-05 15:47:00,75.4,58.6,-100.00,SSE,149,5.0,12.0,56,0.00,,,0.00,204.0,meteohub,2013-02-05 20:47:00,
2013-02-05 15:52:00,75.4,58.6,-100.00,South,183,4.0,12.0,56,0.00,,,0.00,225.0,meteohub,2013-02-05 20:52:00,
2013-02-05 16:02:00,74.7,57.9,-100.00,South,177,4.0,10.0,56,0.00,,,0.00,146.0,meteohub,2013-02-05 21:02:00,
2013-02-05 16:07:00,74.7,57.9,-100.00,SW,217,4.0,10.0,56,0.00,,,0.00,120.0,meteohub,2013-02-05 21:07:00,
2013-02-05 16:12:00,74.5,57.7,-100.00,SE,138,6.0,9.0,56,0.00,,,0.00,149.0,meteohub,2013-02-05 21:12:00,
2013-02-05 16:17:00,74.7,57.9,-100.00,South,181,3.0,10.0,56,0.00,,,0.00,345.0,meteohub,2013-02-05 21:17:00,
2013-02-05 16:22:00,74.7,57.9,-100.00,South,171,3.0,10.0,56,0.00,,,0.00,404.0,meteohub,2013-02-05 21:22:00,
2013-02-05 16:27:00,75.4,58.6,-100.00,South,173,3.0,10.0,56,0.00,,,0.00,397.0,meteohub,2013-02-05 21:27:00,
2013-02-05 16:37:00,75.4,58.6,-100.00,South,191,0.0,10.0,56,0.00,,,0.00,271.0,meteohub,2013-02-05 21:37:00,
2013-02-05 16:42:00,74.8,58.1,-100.00,South,181,5.0,10.0,56,0.00,,,0.00,97.0,meteohub,2013-02-05 21:42:00,
2013-02-05 16:47:00,74.8,58.1,-100.00,South,188,7.0,11.0,56,0.00,,,0.00,204.0,meteohub,2013-02-05 21:47:00,
2013-02-05 16:52:00,74.8,58.1,-100.00,South,178,2.0,11.0,56,0.00,,,0.00,199.0,meteohub,2013-02-05 21:52:00,
2013-02-05 16:57:00,74.7,57.9,-100.00,South,171,3.0,10.0,56,0.00,,,0.00,63.0,meteohub,2013-02-05 21:57:00,
2013-02-05 17:02:00,74.5,57.7,-100.00,South,186,3.0,14.0,56,0.00,,,0.00,146.0,meteohub,2013-02-05 22:02:00,
2013-02-05 17:07:00,74.7,57.9,-100.00,SSE,150,4.0,14.0,56,0.00,,,0.00,125.0,meteohub,2013-02-05 22:07:00,
2013-02-05 17:12:00,74.5,57.7,-100.00,South,182,6.0,11.0,56,0.00,,,0.00,105.0,meteohub,2013-02-05 22:12:00,
2013-02-05 17:17:00,74.3,57.6,-100.00,SE,134,5.0,11.0,56,0.00,,,0.00,86.0,meteohub,2013-02-05 22:17:00,
2013-02-05 17:22:00,74.5,57.7,-100.00,South,172,5.0,13.0,56,0.00,,,0.00,72.0,meteohub,2013-02-05 22:22:00,
2013-02-05 17:32:00,73.9,57.2,-100.00,South,173,3.0,13.0,56,0.00,,,0.00,47.0,meteohub,2013-02-05 22:32:00,
2013-02-05 17:37:00,73.8,56.7,-100.00,SSE,160,1.0,10.0,55,0.00,,,0.00,39.0,meteohub,2013-02-05 22:37:00,
2013-02-05 17:47:00,73.8,56.7,-100.00,SSE,159,1.0,9.0,55,0.00,,,0.00,19.0,meteohub,2013-02-05 22:47:00,
2013-02-05 17:52:00,73.2,56.1,-100.00,South,188,5.0,6.0,55,0.00,,,0.00,14.0,meteohub,2013-02-05 22:52:00,
2013-02-05 17:57:00,72.9,55.2,-100.00,South,180,3.0,7.0,54,0.00,,,0.00,11.0,meteohub,2013-02-05 22:57:00,
2013-02-05 18:07:00,72.7,54.0,-100.00,SSW,192,3.0,7.0,52,0.00,,,0.00,0.0,meteohub,2013-02-05 23:07:00,
2013-02-05 18:12:00,72.5,54.0,-100.00,South,175,4.0,11.0,52,0.00,,,0.00,0.0,meteohub,2013-02-05 23:12:00,
2013-02-05 18:17:00,72.3,53.8,-100.00,SSE,167,2.0,11.0,52,0.00,,,0.00,0.0,meteohub,2013-02-05 23:17:00,
2013-02-05 18:22:00,72.1,53.1,-100.00,SSE,165,0.0,11.0,51,0.00,,,0.00,0.0,meteohub,2013-02-05 23:22:00,
2013-02-05 18:27:00,72.0,52.9,-100.00,SSE,166,0.0,5.0,51,0.00,,,0.00,0.0,meteohub,2013-02-05 23:27:00,
2013-02-05 18:32:00,71.8,52.7,-100.00,SSE,166,1.0,5.0,51,0.00,,,0.00,0.0,meteohub,2013-02-05 23:32:00,
2013-02-05 18:37:00,71.8,52.2,-100.00,South,172,1.0,4.0,50,0.00,,,0.00,0.0,meteohub,2013-02-05 23:37:00,
2013-02-05 18:42:00,71.8,52.7,-100.00,SSE,165,2.0,4.0,51,0.00,,,0.00,0.0,meteohub,2013-02-05 23:42:00,
2013-02-05 18:47:00,71.8,52.2,-100.00,SSE,163,1.0,4.0,50,0.00,,,0.00,0.0,meteohub,2013-02-05 23:47:00,
2013-02-05 18:52:00,71.6,52.0,-100.00,SSE,163,2.0,4.0,50,0.00,,,0.00,0.0,meteohub,2013-02-05 23:52:00,
2013-02-05 18:57:00,71.4,51.8,-100.00,SSE,163,0.0,4.0,50,0.00,,,0.00,0.0,meteohub,2013-02-05 23:57:00,
2013-02-05 19:07:00,71.2,51.1,-100.00,SSE,162,0.0,5.0,49,0.00,,,0.00,0.0,meteohub,2013-02-06 00:07:00,
2013-02-05 19:17:00,71.2,50.5,-100.00,SSE,164,0.0,5.0,48,0.00,,,0.00,0.0,meteohub,2013-02-06 00:17:00,
2013-02-05 19:27:00,70.9,49.1,-100.00,SSE,164,2.0,5.0,46,0.00,,,0.00,0.0,meteohub,2013-02-06 00:27:00,
2013-02-05 19:32:00,70.7,48.4,-100.00,SSE,161,1.0,5.0,45,0.00,,,0.00,0.0,meteohub,2013-02-06 00:32:00,
2013-02-05 19:37:00,70.7,47.7,-100.00,SSE,159,2.0,5.0,44,0.00,,,0.00,0.0,meteohub,2013-02-06 00:37:00,
2013-02-05 19:47:00,70.7,47.7,-100.00,SSE,160,1.0,5.0,44,0.00,,,0.00,0.0,meteohub,2013-02-06 00:47:00,
2013-02-05 19:57:00,70.3,46.2,-100.00,South,170,0.0,5.0,42,0.00,,,0.00,0.0,meteohub,2013-02-06 00:57:00,
2013-02-05 20:02:00,70.2,45.3,-100.00,South,171,0.0,5.0,41,0.00,,,0.00,0.0,meteohub,2013-02-06 01:02:00,
2013-02-05 20:07:00,70.2,44.8,-100.00,SSE,165,4.0,5.0,40,0.00,,,0.00,0.0,meteohub,2013-02-06 01:07:00,
2013-02-05 20:12:00,70.2,44.8,-100.00,South,179,2.0,5.0,40,0.00,,,0.00,0.0,meteohub,2013-02-06 01:12:00,
2013-02-05 20:17:00,70.2,44.1,-100.00,South,174,0.0,6.0,39,0.00,,,0.00,0.0,meteohub,2013-02-06 01:17:00,
2013-02-05 20:22:00,70.2,44.1,-100.00,South,170,2.0,6.0,39,0.00,,,0.00,0.0,meteohub,2013-02-06 01:22:00,
2013-02-05 20:27:00,70.2,43.3,-100.00,South,175,0.0,6.0,38,0.00,,,0.00,0.0,meteohub,2013-02-06 01:27:00,
2013-02-05 20:32:00,70.2,42.6,-100.00,SSE,168,3.0,6.0,37,0.00,,,0.00,0.0,meteohub,2013-02-06 01:32:00,
2013-02-05 20:37:00,70.2,41.9,-100.00,SSE,163,1.0,6.0,36,0.00,,,0.00,0.0,meteohub,2013-02-06 01:37:00,
2013-02-05 20:47:00,70.2,40.5,-100.00,SSE,167,0.0,5.0,34,0.00,,,0.00,0.0,meteohub,2013-02-06 01:47:00,
2013-02-05 20:52:00,70.3,39.9,-100.00,South,188,4.0,6.0,33,0.00,,,0.00,0.0,meteohub,2013-02-06 01:52:00,
2013-02-05 21:02:00,70.3,39.0,-100.00,South,183,2.0,6.0,32,0.00,,,0.00,0.0,meteohub,2013-02-06 02:02:00,
2013-02-05 21:07:00,70.3,38.3,-100.00,South,182,1.0,6.0,31,0.00,,,0.00,0.0,meteohub,2013-02-06 02:07:00,
2013-02-05 21:12:00,70.5,37.6,-100.00,South,180,2.0,5.0,30,0.00,,,0.00,0.0,meteohub,2013-02-06 02:12:00,
2013-02-05 21:17:00,70.5,37.6,-100.00,South,180,2.0,4.0,30,0.00,,,0.00,0.0,meteohub,2013-02-06 02:17:00,
2013-02-05 21:22:00,70.5,37.6,-100.00,South,180,0.0,4.0,30,0.00,,,0.00,0.0,meteohub,2013-02-06 02:22:00,
2013-02-05 21:27:00,70.5,36.7,-100.00,South,180,3.0,4.0,29,0.00,,,0.00,0.0,meteohub,2013-02-06 02:27:00,
2013-02-05 21:32:00,70.5,36.7,-100.00,South,184,0.0,6.0,29,0.00,,,0.00,0.0,meteohub,2013-02-06 02:32:00,
2013-02-05 21:37:00,70.5,36.7,-100.00,South,184,0.0,6.0,29,0.00,,,0.00,0.0,meteohub,2013-02-06 02:37:00,
2013-02-05 21:42:00,70.5,36.7,-100.00,South,184,0.0,6.0,29,0.00,,,0.00,0.0,meteohub,2013-02-06 02:42:00,
2013-02-05 21:47:00,70.5,36.7,-100.00,South,184,0.0,3.0,29,0.00,,,0.00,0.0,meteohub,2013-02-06 02:47:00,
2013-02-05 21:52:00,70.5,36.7,-100.00,South,183,0.0,3.0,29,0.00,,,0.00,0.0,meteohub,2013-02-06 02:52:00,
2013-02-05 22:02:00,70.3,35.6,-100.00,South,183,0.0,3.0,28,0.00,,,0.00,0.0,meteohub,2013-02-06 03:02:00,
2013-02-05 22:07:00,70.5,35.8,-100.00,South,184,0.0,3.0,28,0.00,,,0.00,0.0,meteohub,2013-02-06 03:07:00,
2013-02-05 22:12:00,70.5,35.8,-100.00,South,184,0.0,3.0,28,0.00,,,0.00,0.0,meteohub,2013-02-06 03:12:00,
2013-02-05 22:17:00,70.3,35.6,-100.00,South,184,0.0,2.0,28,0.00,,,0.00,0.0,meteohub,2013-02-06 03:17:00,
2013-02-05 22:22:00,70.5,34.9,-100.00,South,184,0.0,2.0,27,0.00,,,0.00,0.0,meteohub,2013-02-06 03:22:00,
2013-02-05 22:27:00,70.7,35.1,-100.00,South,184,3.0,4.0,27,0.00,,,0.00,0.0,meteohub,2013-02-06 03:27:00,
2013-02-05 22:32:00,70.9,35.2,-100.00,South,184,2.0,4.0,27,0.00,,,0.00,0.0,meteohub,2013-02-06 03:32:00,
2013-02-05 22:42:00,70.7,35.1,-100.00,South,183,0.0,3.0,27,0.00,,,0.00,0.0,meteohub,2013-02-06 03:42:00,
2013-02-05 22:47:00,70.9,34.3,-100.00,South,184,1.0,5.0,26,0.00,,,0.00,0.0,meteohub,2013-02-06 03:47:00,
2013-02-05 22:52:00,70.7,34.2,-100.00,South,184,1.0,5.0,26,0.00,,,0.00,0.0,meteohub,2013-02-06 03:52:00,
2013-02-05 23:02:00,70.3,33.8,-100.00,South,183,0.0,5.0,26,0.00,,,0.00,0.0,meteohub,2013-02-06 04:02:00,
2013-02-05 23:07:00,70.3,33.8,-100.00,South,184,0.0,3.0,26,0.00,,,0.00,0.0,meteohub,2013-02-06 04:07:00,
2013-02-05 23:12:00,70.3,32.9,-100.00,South,184,0.0,3.0,25,0.00,,,0.00,0.0,meteohub,2013-02-06 04:12:00,
2013-02-05 23:17:00,70.2,32.7,-100.00,South,183,0.0,1.0,25,0.00,,,0.00,0.0,meteohub,2013-02-06 04:17:00,
2013-02-05 23:22:00,70.0,31.5,-100.00,South,183,0.0,1.0,24,0.00,,,0.00,0.0,meteohub,2013-02-06 04:22:00,
2013-02-05 23:27:00,69.8,31.5,-100.00,South,184,0.0,1.0,24,0.00,,,0.00,0.0,meteohub,2013-02-06 04:27:00,
2013-02-05 23:32:00,69.8,30.4,-100.00,South,184,0.0,1.0,23,0.00,,,0.00,0.0,meteohub,2013-02-06 04:32:00,
2013-02-05 23:37:00,69.6,30.2,-100.00,South,183,0.0,0.0,23,0.00,,,0.00,0.0,meteohub,2013-02-06 04:37:00,
2013-02-05 23:42:00,69.4,30.0,-100.00,South,184,0.0,0.0,23,0.00,,,0.00,0.0,meteohub,2013-02-06 04:42:00,
2013-02-05 23:47:00,69.1,30.7,-100.00,South,183,0.0,0.0,24,0.00,,,0.00,0.0,meteohub,2013-02-06 04:47:00,
2013-02-05 23:52:00,68.4,31.1,-100.00,South,183,0.0,0.0,25,0.00,,,0.00,0.0,meteohub,2013-02-06 04:52:00,
2013-02-05 23:57:00,68.0,30.9,-100.00,South,183,0.0,0.0,25,0.00,,,0.00,0.0,meteohub,2013-02-06 04:57:00,